Flag for South Korea Weather past 2 weeks in Gunsan, South Korea

Now
73 °F

Clear.


Feels Like: 69 °F
Forecast: 71 / 81 °F
Wind: 7 mph from South

Location: Kunsan Ab

Current Time: Sep 2, 2015 at 6:00:14 AM

Latest Report: Sep 2, 2015 at 4:58 AM


Visibility: 10 mi

Pressure: 29.89 "Hg

Humidity: 96%

Dew point: 72 °F

Location of GunsanLocation

Historic Weather in Gunsan — Graph

°F

Gunsan temperature yesterday

Maximum temperature yesterday: 86 °F (at 1:58 PM)
Minimum temperature yesterday: 73 °F (at 5:58 AM)
Average temperature yesterday: 78 °F

Past Weeks' High & Low Weather Summary

 TemperatureHumidityPressure
High86 °F (Sep 1, 1:58 PM)100% (Aug 18, 4:58 AM)29.96 "Hg (Aug 18, 4:58 AM)
Low67 °F (Aug 29, 5:58 AM)47% (Aug 26, 4:58 PM)29.50 "Hg (Aug 25, 8:58 AM)
Average76 °F83%29.78 "Hg
* Reported Aug 18 4:58 AM — Sep 2 4:58 AM, Gunsan, Weather by CustomWeather, © 2015

Note: Actual official high and low records may vary slightly from our data, if they occured in-between our weather recording intervals... More about our weather records

Advertising

Gunsan weather history for previous 24 hours

 ConditionsComfort  
Time TempWeatherWind HumidityBarometerVisibility
4:58 AM
Wed, Sep 2
73 °FClear.7 mph96%29.89 "Hg10 mi
3:58 AM72 °FClear.7 mph98%29.89 "Hg10 mi
2:58 AM73 °FClear.6 mph97%29.89 "Hg10 mi
1:58 AM73 °FClear.5 mph96%29.89 "Hg10 mi
12:58 AM74 °FClear.6 mph91%29.88 "Hg10 mi
11:58 PM
Tue, Sep 1
74 °FClear.7 mph95%29.87 "Hg9 mi
10:58 PM75 °FPassing clouds.1 mph89%29.86 "Hg10 mi
9:58 PM75 °FPassing clouds.6 mph87%29.86 "Hg10 mi
8:58 PM78 °FPassing clouds.5 mph69%29.84 "Hg10 mi
7:58 PM79 °FPassing clouds.2 mph69%29.82 "Hg10 mi
6:58 PM79 °FScattered clouds.6 mph67%29.80 "Hg10 mi
5:58 PM80 °FBroken clouds.8 mph65%29.80 "Hg10 mi
4:58 PM83 °FScattered clouds.13 mph64%29.78 "Hg10 mi
3:58 PM85 °FBroken clouds.12 mph55%29.78 "Hg10 mi
2:58 PM85 °FBroken clouds.7 mph53%29.78 "Hg10 mi
1:58 PM86 °FBroken clouds.5 mph50%29.79 "Hg10 mi
11:58 AM84 °FScattered clouds.6 mph51%29.80 "Hg10 mi
10:58 AM83 °FPassing clouds.9 mph54%29.81 "Hg10 mi
9:58 AM80 °FSunny.12 mph58%29.80 "Hg10 mi
8:58 AM78 °FSunny.12 mph62%29.80 "Hg10 mi
7:58 AM75 °FPassing clouds.7 mph74%29.80 "Hg10 mi
Weather by CustomWeather, © 2015

See weather overviewHow to use our weather pages